Location: Unspecified
(51.0950°N, 12.9690°E)
Time: 11:05:27
(UTC+00:00)

ARIANE 6 FM1 Upper Stage - Visible Passes

Search period start: 20 September 2024 00:00
Search period end: 30 September 2024 00:00
Orbit: 566 x 594 km, 62.0° (Epoch: 19 September)

Date Brightness Start Highest point End Pass type
(mag) Time Alt. Az. Time Alt. Az. Time Alt. Az.
20 Sep 4.9 00:56:52 25° NE 00:56:52 25° NE 00:59:39 10° E visible
20 Sep 2.7 02:33:16 26° NW 02:35:44 89° NE 02:40:07 10° SE visible
20 Sep 4.3 04:11:43 10° WNW 04:14:32 17° WSW 04:17:20 10° SSW visible
20 Sep 4.1 18:17:53 10° SSE 18:20:53 19° ESE 18:21:45 18° ESE visible
20 Sep 3.7 19:55:28 10° SW 19:58:12 39° WSW 19:58:12 39° WSW visible
21 Sep 5.2 01:03:23 18° E 01:03:23 18° E 01:04:46 10° E visible
21 Sep 2.7 02:39:50 57° W 02:40:26 64° SW 02:44:45 10° SSE visible
21 Sep 4.7 04:17:46 10° W 04:18:58 11° WSW 04:20:10 10° SW visible
21 Sep 3.6 18:21:45 10° S 18:25:23 28° ESE 18:27:56 16° ENE visible
21 Sep 3.3 20:00:16 10° WSW 20:04:20 57° NW 20:04:20 57° NW visible
22 Sep 3.9 02:46:53 28° S 02:46:53 28° S 02:49:11 10° SSE visible
22 Sep 3.1 18:25:56 10° SSW 18:29:56 41° SE 18:33:33 13° ENE visible
22 Sep 3.8 20:05:12 10° WSW 20:09:19 43° NNW 20:09:54 40° N visible
23 Sep 2.7 18:30:19 10° SSW 18:34:32 61° SE 18:38:44 10° NE visible
23 Sep 4.3 20:10:12 10° W 20:14:08 34° NNW 20:15:04 30° N visible
24 Sep 2.7 18:34:53 10° SW 18:39:10 87° SE 18:43:32 10° NE visible
24 Sep 4.6 20:15:16 10° W 20:19:01 28° NNW 20:19:57 26° N visible
25 Sep 3.1 18:39:35 10° WSW 18:43:52 67° NW 18:48:12 10° NE visible
25 Sep 4.8 20:20:22 10° WNW 20:23:54 24° NNW 20:24:38 23° N visible
26 Sep 3.6 18:44:25 10° WSW 18:48:35 49° NW 18:52:50 10° NE visible
26 Sep 5.0 20:25:27 10° WNW 20:28:49 21° NNW 20:29:13 21° N visible
27 Sep 4.1 18:49:20 10° W 18:53:22 38° NNW 18:57:24 10° NE visible
27 Sep 5.1 20:30:30 10° NW 20:33:42 20° N 20:33:42 20° N visible
28 Sep 2.7 17:14:10 10° SW 17:18:26 74° SE 17:22:46 10° NE visible
28 Sep 4.5 18:54:19 10° W 18:58:10 30° NNW 19:01:50 11° NE visible
28 Sep 5.2 20:35:30 10° NW 20:38:08 19° NNW 20:38:08 19° NNW visible
29 Sep 2.9 17:18:45 10° SW 17:23:03 79° NW 17:27:24 10° NE visible
29 Sep 4.7 18:59:21 10° WNW 19:03:00 26° NNW 19:06:12 12° NE visible
29 Sep 5.3 20:40:23 10° NW 20:42:30 18° NNW 20:42:30 18° NNW visible
